Regional Weather Roundup
Issued by NWS Sterling, VA

Home | Current Version | Previous Version | Text Only | Print | Product List | Glossary Off
Versions: 1 2 3 4 5 6 7 8 9 10 11 12 13 14 15 16 17 18 19 20 21 22 23 24 25 26 27

000
ASUS41 KLWX 280511
RWRLWX

REGIONAL WEATHER ROUNDUP
NATIONAL WEATHER SERVICE BALTIMORE MD/WASHINGTON DC
100 AM EDT WED JUN 28 2017

Note: "FAIR" indicates few or no clouds below 12,000 feet
with no significant weather and/or obstructions to visibility.
 TC=TEMPERATURE CELSIUS

 * =Non NWS site. Station does not report precipitation (e.g. rain,
    snow, etc.), thunder, or fog.

DCZ001-MDZ009-015-VAZ040>042-051-053>054-280600-
WASHINGTON METRO

CITY           SKY/WX    TMP DP  RH WIND       PRES   REMARKS
WASHINGTON NAT PTCLDY    67  48  50 NW7       30.10S
DULLES         CLEAR     60  46  59 CALM      30.11R
ANDREWS AFB    PTCLDY    62  47  59 N3        30.09S
FT BELVOIR     CLEAR     59  49  71 CALM      30.10R
QUANTICO       PTCLDY    64  51  62 NW6       30.11S
COLLEGE PARK*  CLEAR     59  49  71 CALM      30.10R
LEESBURG*      CLEAR     63  50  63 NW6       30.12R
MANASSAS*      PTCLDY    56  51  84 CALM      30.12R
GAITHERSBURG*  CLEAR     56  47  71 CALM      30.11S

$$

MDZ006>007-011-014-280600-
BALTIMORE METRO

CITY           SKY/WX    TMP DP  RH WIND       PRES   REMARKS
BWI AIRPORT    PTCLDY    60  50  69 CALM      30.09R
MD SCIENCE CTR   N/A     69  47  45 MISG      30.10R
MARTIN STATE   CLEAR     63  50  63 CALM      30.10S
ANNAPOLIS      PTCLDY    67  54  63 N6        30.08S
FORT MEADE*    CLEAR     54  52  94 CALM      30.12S

$$

MDZ012-015-019>023-280600-
MARYLAND EASTERN SHORE

CITY           SKY/WX    TMP DP  RH WIND       PRES   REMARKS
OCEAN CITY     MOCLDY    63  56  78 NW7       30.07R
SALISBURY      LGT RAIN  63  60  90 N5        30.07R
BAY BRIDGE AP* PTCLDY    70  50  49 NW10G18   30.09R
CAMBRIDGE*     PTCLDY    66  55  68 N7        30.09R
EASTON*        CLEAR     67  49  53 CALM      30.12S

$$

MDZ017>025-280600-
SOUTHERN MARYLAND

CITY           SKY/WX    TMP DP  RH WIND       PRES   REMARKS
PATUXENT RIVER CLOUDY    71  49  45 N8        30.09R
ST INIGOES     PTCLDY    63  57  81 CALM      30.08R
LEONARDTOWN*   CLOUDY    68  50  52 CALM      30.11R

$$

MDZ003>005-280600-
NORTH CENTRAL MARYLAND

CITY           SKY/WX    TMP DP  RH WIND       PRES   REMARKS
FREDERICK*     CLEAR     57  48  72 CALM      30.14R
HAGERSTOWN APT CLEAR     63  48  58 CALM      30.11S
WESTMINSTER*   CLEAR     63  48  59 CALM      30.11R

$$

MDZ501>502-280600-
WESTERN MARYLAND

CITY           SKY/WX    TMP DP  RH WIND       PRES   REMARKS
OAKLAND*       NOT AVBL
CUMBERLAND*    CLEAR     54  50  87 CALM      30.18R

$$

VAZ025>031-280600-
SHENANDOAH VALLEY

CITY           SKY/WX    TMP DP  RH WIND       PRES   REMARKS
WINCHESTER*    CLEAR     54  46  76 CALM      30.12S
FRONT ROYAL*   CLEAR     55  48  76 CALM      30.12S
LURAY*         CLEAR     57  50  77 SE6       30.14R
NEW MARKET*    CLEAR     53  47  80 CALM      30.14S
STAUNTON*      CLEAR     53  47  81 CALM      30.17S
WAYNESBORO*    CLEAR     54  50  88 W3        30.16R

$$

WVZ021-048>050-054>055-280600-
EASTERN WEST VIRGINIA PANHANDLE

CITY           SKY/WX    TMP DP  RH WIND       PRES   REMARKS
MARTINSBURG    CLEAR     55  47  74 CALM      30.11R
PETERSBURG*    CLEAR     53  51  94 CALM      30.16S

$$

VAZ036>039-050-280600-
CENTRAL FOOTHILLS

CITY           SKY/WX    TMP DP  RH WIND       PRES   REMARKS
CHARLOTTESVILL CLEAR     64  48  56 CALM      30.12R
CULPEPER*      CLEAR     55  52  87 CALM      30.13R
ORANGE*        CLEAR     55  52  88 CALM      30.12S
GORDONSVILLE*  CLEAR     57  52  84 CALM      30.12R
WARRENTON*     PTCLDY    55  47  76 CALM      30.11S

$$

VAZ055>057-280600-
NORTH AND CENTRAL PIEDMONT

CITY           SKY/WX    TMP DP  RH WIND       PRES   REMARKS
FREDERICKSBRG* CLEAR     61  54  76 CALM      30.10S
STAFFORD*      CLEAR     55  53  93 CALM      30.15R

$$

NCZ024-NYZ072-PAZ021-071-VAZ022-071-280600-
OTHER REGIONAL OBSERVATIONS

CITY           SKY/WX    TMP DP  RH WIND       PRES   REMARKS
NEW YORK CITY  CLEAR     67  49  52 VRB6      30.05R
PHILADELPHIA   PTCLDY    67  47  48 NW8       30.07R
PITTSBURGH     CLEAR     54  49  83 CALM      30.13R
ROANOKE        CLEAR     57  48  72 S5        30.17R
RICHMOND       CLEAR     66  53  63 N10       30.09R
RALEIGH        CLEAR     61  57  87 NE3       30.11S

$$

ANZ530>537-280600-
MARINE OBSERVATIONS

STATION/POSITION TIME  TEMP    WIND        PRES
                       AIR SEA DIR/SP/G
                 (UTC) (F)     (DEG/KT/KT) (MB)
THOMAS PT LIGHT  0500   70 77  330/ 11/ 13   N/A
BALT KEY BRIDGE  0448   69     330/ 11/ 13 1018.5R
COVE POINT       0448   72      10/ 14/ 19 1019.4R
LEWISETTA        0448   72 79   10/ 10/ 15 1018.6R
SOLOMONS ISLAND  0448   71 79  340/  7/ 10   N/A
PINEY POINT      0448           10/  8/  9   N/A

$$





USA.gov is the U.S. government's official web portal to all federal, state and local government web resources and services.